User: anonymous   Login
Location: Bothwell
(42.3833°S, 147.0000°E)
Time: 01:08:10
(UTC+10:00)
Language:

DELFI C3 - Orbit

View from above orbital plane
View from above orbital plane
View from above satellite
View from above satellite

Ground track
Ground track

The orbit data is extracted from the following two-line orbital elements,

1 32789U 08021G   22273.51226670  .00018829  00000-0  98125-3 0  9991
2 32789  97.3339 296.1349 0008254 328.6526  31.4214 15.15998727787832
Epoch (UTC): 30 September 2022 12:17:39
Eccentricity: 0.0008254
inclination: 97.3339°
perigee height: 512 km
apogee height: 523 km
right ascension of ascending node: 296.1349°
argument of perigee: 328.6526°
revolutions per day: 15.15998727
mean anomaly at epoch: 31.4214°
orbit number at epoch: 78783

The dashed part of the orbit path shows where the satellite is in the earth's shadow,  

DLR